Location: Paderno d�Adda
(45.6667°N, 9.4333°E)
Time: 05:06:24
(UTC+00:00)

CENTAUR R/B - Pass Details

Date: 24 January 2021
Orbit: 742 x 1446 km, 63.5° (Epoch: 02 March)

Event Time Altitude Azimuth Distance (km) Brightness Sun altitude
Rises 04:04:11 0° 161° (SSE) 3,343 5.5 -29.2°
Reaches altitude 10° 04:07:29 10° 140° (SE) 2,517 5.1 -28.6°
Maximum altitude 04:10:51 16° 104° (ESE) 2,241 5.2 -28.0°
Drops below altitude 10° 04:14:30 10° 69° (ENE) 2,783 5.7 -27.4°
Sets 04:18:25 0° 50° (NE) 3,895 6.3 -26.7°
